This demonstration page uses our WeatherBlox Daily Observations layout. Learn more.

Left ArrowRight Arrow

41.86663, -103.66717

Hourly Observations for May 17, 2021

Temp ( °F °C ) Dew Point ( °F °C ) Humidity (%) Winds ( mph kmh ) Pressure ( in mb ) Visibility ( mi km ) Precip ( " mm )
12:53 am 00:53 Clear 50 10 46 7.8 86 86 Calm 29.96 1014 10 16 0.00 0.00
1:53 am 01:53 Clear 48 8.9 44 6.7 86 86 SSW 6 9 29.97 1015 10 16 0.00 0.00
2:53 am 02:53 Clear 47 8.3 44 6.7 90 90 NNE 3 6 29.96 1015 10 16 0.00 0.00
3:40 am 03:40 Mostly Cloudy 48 8.9 45 7.2 89 89 Calm 30.00 1016 7 11 0.00 0.00
3:50 am 03:50 Cloudy 48 9 45 7 87 87 ENE 5 7 30.00 1016 8 13 0.00 0.00
3:53 am 03:53 Cloudy 48 8.9 45 7.2 89 89 NE 5 7 29.95 1014 8 13 0.00 0.00
4:53 am 04:53 Clear with Mist and Fog 48 8.9 45 7.2 89 89 Calm 29.95 1014 6 10 0.00 0.00
5:02 am 05:02 Partly Cloudy with Mist and Fog 47 8.3 44 6.7 90 90 Calm 30.00 1016 6 10 0.00 0.00
5:11 am 05:11 Mostly Cloudy with Mist and Fog 46 8 45 7 93 93 Calm 30.01 1016 6 10 0.00 0.00
5:18 am 05:18 Mostly Cloudy with Mist and Fog 47 8.3 44 6.7 90 90 Calm 30.00 1016 5 8 0.00 0.00
5:37 am 05:37 Cloudy with Mist and Fog 49 9.4 46 7.8 90 90 Calm 29.98 1015 5 8 0.00 0.00
5:47 am 05:47 Cloudy with Mist and Fog 48 9 46 8 94 94 Calm 29.99 1016 2 3 0.00 0.00
5:53 am 05:53 Mostly Cloudy with Fog 49 9.4 46 7.8 90 90 Calm 29.95 1014 1 1 0.00 0.00
6:01 am 06:01 Mostly Cloudy with Fog 48 8.9 46 7.8 93 93 NW 3 6 29.99 1016 0 0 0.00 0.00
6:53 am 06:53 Mostly Cloudy with Fog 50 10 49 9.4 96 96 Calm 29.95 1014 N/A 0.00 0.00
7:53 am 07:53 Mostly Cloudy with Fog 52 11.1 50 10 93 93 Calm 29.96 1015 0 0 0.00 0.00
8:14 am 08:14 Cloudy with Mist and Fog 54 12.2 51 10.6 90 90 Calm 29.94 1014 1 2 0.00 0.00
8:18 am 08:18 Cloudy with Mist and Fog 54 12.2 51 10.6 90 90 Calm 29.94 1014 4 6 0.00 0.00
8:53 am 08:53 Mostly Cloudy with Mist and Fog 56 13.3 52 11.1 87 87 Calm 29.96 1014 3 5 0.00 0.00
9:10 am 09:10 Partly Cloudy 58 14.4 53 11.7 84 84 E 3 6 29.91 1013 10 16 0.00 0.00
9:42 am 09:42 Mostly Cloudy 56 13.3 51 10.6 84 84 SSW 12 19 29.93 1013 7 11 0.00 0.00
9:53 am 09:53 Cloudy 57 13.9 52 11.1 83 83 SSE 10 17 29.95 1014 8 13 0.00 0.00
10:26 am 10:26 Cloudy 59 15 52 11.1 78 78 SSE 12 19 29.90 1013 10 16 0.00 0.00
10:53 am 10:53 Mostly Cloudy 61 16.1 52 11.1 72 72 ESE 15 24 29.95 1014 10 16 0.00 0.00
11:02 am 11:02 Partly Cloudy 62 16.7 53 11.7 73 73 ESE 10 17 29.88 1012 10 16 0.00 0.00
11:53 am 11:53 Mostly Sunny 63 17.2 51 10.6 65 65 SE 12 19 29.94 1014 10 16 0.00 0.00
12:53 pm 12:53 Mostly Sunny 67 19.4 51 10.6 57 57 S 7 11 29.92 1013 10 16 0.00 0.00
1:53 pm 13:53 Mostly Cloudy 68 20 50 10 53 53 ESE 12 19 29.90 1013 10 16 0.00 0.00
2:53 pm 14:53 Cloudy 68 20 48 8.9 49 49 SE 9 15 29.89 1012 10 16 0.00 0.00
3:53 pm 15:53 Cloudy 70 21.1 49 9.4 47 47 SE 12 19 29.87 1011 10 16 0.00 0.00
4:53 pm 16:53 Partly Cloudy 69 20.6 51 10.6 53 53 SE 17 28 29.86 1011 10 16 0.00 0.00
5:53 pm 17:53 Sunny 66 18.9 54 12.2 65 65 SE 21 33 29.86 1011 10 16 0.00 0.00
6:53 pm 18:53 Mostly Cloudy 64 17.8 53 11.7 68 68 SE 16 26 29.88 1012 10 16 0.00 0.00
7:53 pm 19:53 Mostly Sunny 61 16.1 53 11.7 75 75 ESE 15 24 29.88 1012 10 16 0.00 0.00
8:53 pm 20:53 Mostly Cloudy 58 14.4 53 11.7 84 84 ESE 13 20 29.90 1012 10 16 0.00 0.00
9:31 pm 21:31 Cloudy 58 14.4 53 11.7 84 84 ESE 13 20 29.87 1012 10 16 0.00 0.00
9:53 pm 21:53 Cloudy 59 15 53 11.7 81 81 ESE 10 17 29.91 1013 10 16 0.00 0.00
10:17 pm 22:17 Cloudy 58 14.4 52 11.1 81 81 SE 10 17 29.87 1012 10 16 0.00 0.00
10:38 pm 22:38 Cloudy 58 14.4 53 11.7 84 84 SE 10 17 29.88 1012 10 16 0.00 0.00
10:53 pm 22:53 Cloudy 58 14.4 53 11.7 84 84 SE 10 17 29.90 1013 10 16 0.00 0.00
11:43 pm 23:43 Cloudy 57 13.9 51 10.6 81 81 ESE 9 15 29.87 1011 10 16 0.00 0.00
11:53 pm 23:53 Cloudy 56 13.3 51 10.6 84 84 ESE 10 17 29.88 1012 10 16 0.00 0.00

Powered by AerisWeather